sat.trackr.live / text

‹ back to catalog

STARLINK-11148 [DTC]

NORAD 60044 · 2024-112G

PAYLOAD ACTIVE UNKNOWN

§ Identity

Operator
Country
US
Launch date
2024-06-08
Launch site
AFWTR
Launch vehicle
Mass (kg)
RCS (m²)

Purposes: comms

External: N2YO · Heavens-Above · Gunter

§ Orbital elements

Epoch: 2026-09-21T13:15:29.064672Z

Period
91.74 min
Inclination
53.1593°
Eccentricity
0.0000706
Mean motion
15.69704533 rev/d
Perigee alt
359.3 km
Apogee alt
360.2 km
Semi-major
6,737.9 km
B*
-1.8430e-7
RAAN
20.7251°
Arg perigee
98.3308°
Mean anomaly
261.7790°
Rev number
13,174

§ Raw data

STARLINK-11148 [DTC]1 60044U 24112G   26264.55241973 -.00000610  00000+0 -18430-6 0  99902 60044  53.1593  20.7251 0000706  98.3308 261.7790 15.69704533131744

JSON: /api/v1/satellites/60044 · /tle

For live sub-satellite position, see the globe view (requires WebGL).

§ Visibility from observer

Set your observer location to see the next 7 days of passes ≥ 10°. The values pass through the URL so the page stays shareable.

No JS? Fill the form by hand. The geolocation button needs JavaScript.